Weather History for Tehachapi, CA

Change the Weather History Date:

Wednesday, June 20, 2012

  Actual Average Record
Temperature  
Mean Temperature 70 °F -  
Max Temperature 84 °F 81 °F 87 °F (2011)
Min Temperature 55 °F 54 °F 44 °F (2013)
Cooling Degree Days 4    
Growing Degree Days 20 (Base 50)    
Moisture  
Dew Point 38 °F    
Average Humidity 32    
Maximum Humidity 58    
Minimum Humidity 20    
Precipitation  
Precipitation 0.00 in - - ()
Sea Level Pressure  
Sea Level Pressure 29.98 in    
Wind  
Wind Speed 11 mph (WNW)    
Max Wind Speed 17 mph    
Max Gust Speed 23 mph    
Visibility 9 miles    
Events      
Averages and records for this station are not official NWS values.
T = Trace of Precipitation, MM = Missing Value Source: NWS Daily Summary

Daily Weather History Graph

Daily Weather History Graph

Search for Another Location

Airport:

Trip Planner

Search our weather history database for the weather conditions in past years. The results will help you decide how hot, cold, wet, or windy it might be!

Date:

Astronomy

Jun. 20, 2012 Rise Set
Actual Time 5:39 AM PDT 8:11 PM PDT
Civil Twilight 5:09 AM PDT 8:41 PM PDT
Nautical Twilight 4:33 AM PDT 9:17 PM PDT
Astronomical Twilight 3:52 AM PDT 9:58 PM PDT
Moon 6:41 AM PDT (6/20) 9:03 PM PDT (6/20)
Length of Visible Light 15h 31m
Length of Day
14h 31m
New Moon, 1% of the Moon is Illuminated
Jun 20
New Moon
Jun 26
First Quarter
Jul 3
Full
Jul 10
Last Quarter
Jul 18
New

Hourly Weather History & Observations

Time (PDT) Temp. Dew Point Humidity Pressure Visibility Wind Dir Wind Speed Gust Speed Precip Events Conditions
12:15 AM 66.2 °F 28.4 °F 24% 29.97 in 10.0 mi WNW 13.8 mph - N/A   Clear
12:35 AM 66.2 °F 26.6 °F 23% 29.98 in 10.0 mi WNW 15.0 mph - N/A   Clear
12:55 AM 66.2 °F 28.4 °F 24% 29.97 in 10.0 mi WNW 13.8 mph 19.6 mph N/A   Clear
1:15 AM 64.4 °F 30.2 °F 28% 29.97 in 10.0 mi WNW 15.0 mph - N/A   Clear
1:35 AM 64.4 °F 28.4 °F 26% 29.97 in 10.0 mi WNW 12.7 mph - N/A   Clear
1:55 AM 64.4 °F 28.4 °F 26% 29.97 in 10.0 mi WNW 13.8 mph 17.3 mph N/A   Clear
2:15 AM 62.6 °F 32.0 °F 32% 29.97 in 10.0 mi West 10.4 mph - N/A   Clear
2:35 AM 62.6 °F 32.0 °F 32% 29.96 in 9.0 mi WNW 10.4 mph 17.3 mph N/A   Clear
2:55 AM 62.6 °F 32.0 °F 32% 29.96 in 10.0 mi WNW 11.5 mph - N/A   Clear
3:15 AM 62.6 °F 32.0 °F 32% 29.96 in 10.0 mi WNW 8.1 mph - N/A   Clear
3:35 AM 57.2 °F 32.0 °F 38% 29.96 in 10.0 mi WNW 9.2 mph - N/A   Clear
3:55 AM 57.2 °F 33.8 °F 41% 29.96 in 10.0 mi NW 6.9 mph - N/A   Clear
4:15 AM 57.2 °F 37.4 °F 48% 29.96 in 10.0 mi NW 9.2 mph - N/A   Clear
4:35 AM 57.2 °F 39.2 °F 51% 29.97 in 10.0 mi NW 8.1 mph - N/A   Clear
4:55 AM 57.2 °F 41.0 °F 55% 29.97 in 10.0 mi WNW 5.8 mph - N/A   Clear
5:15 AM 57.2 °F 39.2 °F 51% 29.97 in 10.0 mi WNW 4.6 mph - N/A   Clear
5:35 AM 55.4 °F 41.0 °F 58% 29.97 in 8.0 mi WNW 4.6 mph - N/A   Clear
5:55 AM 55.4 °F 41.0 °F 58% 29.97 in 7.0 mi NW 4.6 mph - N/A   Clear
6:15 AM 55.4 °F 41.0 °F 58% 29.97 in 7.0 mi West 5.8 mph - N/A   Clear
6:35 AM 57.2 °F 41.0 °F 55% 29.97 in 7.0 mi West 4.6 mph - N/A   Clear
6:55 AM 60.8 °F 41.0 °F 48% 29.98 in 8.0 mi West 5.8 mph - N/A   Clear
7:15 AM 64.4 °F 42.8 °F 45% 29.98 in 8.0 mi WNW 6.9 mph - N/A   Clear
7:35 AM 66.2 °F 42.8 °F 43% 29.98 in 9.0 mi NW 8.1 mph - N/A   Clear
7:55 AM 68.0 °F 41.0 °F 37% 29.99 in 8.0 mi WNW 9.2 mph - N/A   Clear
8:15 AM 69.8 °F 37.4 °F 31% 29.99 in 9.0 mi WNW 11.5 mph - N/A   Clear
8:35 AM 69.8 °F 39.2 °F 33% 29.99 in 9.0 mi NW 9.2 mph - N/A   Clear
8:55 AM 71.6 °F 37.4 °F 29% 30.00 in 9.0 mi WNW 9.2 mph - N/A   Clear
9:15 AM 73.4 °F 35.6 °F 25% 30.00 in 9.0 mi WNW 9.2 mph - N/A   Clear
9:35 AM 73.4 °F 32.0 °F 22% 29.99 in 8.0 mi NW 11.5 mph - N/A   Clear
9:55 AM 75.2 °F 32.0 °F 21% 29.99 in 10.0 mi WNW 10.4 mph - N/A   Clear
10:15 AM 77.0 °F 35.6 °F 22% 29.99 in 9.0 mi WNW 9.2 mph - N/A   Clear
10:35 AM 77.0 °F 37.4 °F 24% 29.99 in 10.0 mi WNW 10.4 mph - N/A   Clear
10:55 AM 78.8 °F 39.2 °F 24% 29.99 in 9.0 mi NW 8.1 mph - N/A   Clear
11:15 AM 80.6 °F 39.2 °F 23% 29.98 in 10.0 mi NW 5.8 mph - N/A   Clear
11:35 AM 82.4 °F 37.4 °F 20% 29.98 in 8.0 mi WNW 8.1 mph - N/A   Clear
11:55 AM 82.4 °F 37.4 °F 20% 29.98 in 8.0 mi NNW 6.9 mph - N/A   Clear
12:15 PM 84.2 °F 39.2 °F 20% 29.97 in 10.0 mi NW 11.5 mph - N/A   Clear
12:35 PM 84.2 °F 39.2 °F 20% 29.97 in 9.0 mi NW 12.7 mph 18.4 mph N/A   Clear
12:55 PM 84.2 °F 41.0 °F 22% 29.97 in 9.0 mi NW 13.8 mph 20.7 mph N/A   Clear
1:15 PM 84.2 °F 42.8 °F 23% 29.97 in 9.0 mi NW 17.3 mph 23.0 mph N/A   Clear
1:35 PM 84.2 °F 42.8 °F 23% 29.97 in 9.0 mi NW 13.8 mph 20.7 mph N/A   Clear
1:55 PM 84.2 °F 44.6 °F 25% 29.97 in 9.0 mi NW 13.8 mph - N/A   Clear
2:15 PM 84.2 °F 44.6 °F 25% 29.96 in 9.0 mi NW 13.8 mph - N/A   Clear
2:35 PM 84.2 °F 44.6 °F 25% 29.97 in 9.0 mi NW 17.3 mph 23.0 mph N/A   Clear
2:55 PM 84.2 °F 44.6 °F 25% 29.97 in 9.0 mi NW 16.1 mph 19.6 mph N/A   Clear
3:15 PM 84.2 °F 42.8 °F 23% 29.97 in 9.0 mi NW 16.1 mph 20.7 mph N/A   Clear
3:35 PM 82.4 °F 42.8 °F 25% 29.97 in 9.0 mi WNW 16.1 mph 21.9 mph N/A   Clear
3:55 PM 82.4 °F 41.0 °F 23% 29.97 in 9.0 mi NW 16.1 mph 23.0 mph N/A   Clear
4:15 PM 82.4 °F 41.0 °F 23% 29.97 in 9.0 mi NW 13.8 mph - N/A   Clear
4:35 PM 82.4 °F 41.0 °F 23% 29.97 in 9.0 mi NW 13.8 mph - N/A   Clear
4:55 PM 82.4 °F 41.0 °F 23% 29.97 in 9.0 mi NW 15.0 mph 20.7 mph N/A   Clear
5:15 PM 82.4 °F 41.0 °F 23% 29.97 in 9.0 mi NW 12.7 mph 20.7 mph N/A   Clear
5:35 PM 80.6 °F 41.0 °F 24% 29.97 in 9.0 mi NW 15.0 mph 19.6 mph N/A   Clear
5:55 PM 80.6 °F 41.0 °F 24% 29.96 in 9.0 mi NW 15.0 mph - N/A   Clear
6:15 PM 80.6 °F 41.0 °F 24% 29.97 in 9.0 mi WNW 13.8 mph 19.6 mph N/A   Clear
6:35 PM 80.6 °F 41.0 °F 24% 29.97 in 8.0 mi WNW 15.0 mph 18.4 mph N/A   Clear
6:55 PM 78.8 °F 41.0 °F 26% 29.97 in 9.0 mi NW 13.8 mph 19.6 mph N/A   Clear
7:15 PM 77.0 °F 41.0 °F 28% 29.98 in 9.0 mi NW 12.7 mph - N/A   Clear
7:35 PM 77.0 °F 41.0 °F 28% 29.98 in 8.0 mi WNW 10.4 mph - N/A   Clear
7:55 PM 75.2 °F 41.0 °F 29% 29.98 in 8.0 mi WNW 10.4 mph - N/A   Clear
8:15 PM 73.4 °F 41.0 °F 31% 29.98 in 9.0 mi WNW 6.9 mph - N/A   Clear
8:35 PM 71.6 °F 41.0 °F 33% 29.99 in 9.0 mi WNW 8.1 mph - N/A   Clear
8:55 PM 68.0 °F 41.0 °F 37% 29.99 in 10.0 mi West 6.9 mph - N/A   Clear
9:15 PM 66.2 °F 39.2 °F 37% 29.99 in 10.0 mi West 6.9 mph - N/A   Clear
9:35 PM 64.4 °F 37.4 °F 37% 30.00 in 10.0 mi West 6.9 mph - N/A   Clear
9:55 PM 66.2 °F 39.2 °F 37% 30.01 in 10.0 mi WNW 3.5 mph - N/A   Clear
10:15 PM 64.4 °F 39.2 °F 40% 30.01 in 9.0 mi West 5.8 mph - N/A   Clear
10:35 PM 64.4 °F 41.0 °F 42% 30.01 in 10.0 mi West 6.9 mph - N/A   Clear
10:55 PM 62.6 °F 39.2 °F 42% 30.02 in 10.0 mi West 6.9 mph - N/A   Clear
11:15 PM 62.6 °F 37.4 °F 39% 30.02 in 10.0 mi West 6.9 mph - N/A   Clear
11:35 PM 62.6 °F 37.4 °F 39% 30.02 in 9.0 mi West 6.9 mph - N/A   Clear
11:55 PM 66.2 °F 37.4 °F 35% 30.02 in 10.0 mi WNW 10.4 mph - N/A   Clear